Find Starlink 5786

NORAD ID: 56032 Int'l Des: 2023-042 Owner: SPXS Country: US Constellation: starlink operational
LEOCIRCULAR

Aktuelle Ansicht

3D-Globus wird geladen...

Über Starlink 5786

Beschreibung wird geladen...

Nächste Überflüge

Passes for default location (London). Set your location on the main map for personalized predictions.

Höhenverlauf

Loading altitude history...

Zweizeiliger Elementsatz

1 56032U 23042AY 26145.97535810 .00000925 00000-0 43135-4 0 9999
2 56032 43.0034 328.8979 0001541 268.4373 91.6303 15.27577386174850
Epoch: 25. Mai 2026 • Age: 18 hours

Aktueller Status

Höhe 485.7 km
Geschwindigkeit 7.63 km/s
Subsatellitenpunkt 36.32°N, 121.85°W
Startdatum 24. März 2023
Alter 3.1 years
Typ internet

Technische Details

Klassifizierung Payload
Masse 305.00 kg
Trockenmasse 290.00 kg
Gesamtmasse 305.00 kg
Länge 0.20 m
Durchmesser 2.80 m
Spannweite 9.00 m
Form Box + pan
Hersteller SPXS
Bus-Typ Starlink
Phasenstatus In Orbit
Besitzer/Staat SPXS/US

Most Searched